"2016-04-15 00:00:00",1547931,6.65,261,3.488,0.321,20.99,107.6612,18.89,19.88,17.63,0,110.8,13.1,19.71,223.0
"2016-04-15 00:00:30",1547932,7.581,254.2,2.56,0.473,20.96,107.6587,18.88,19.87,17.56,0,110.8,13.1,19.70,216.2
"2016-04-15 00:01:00",1547933,8.19,258,1.186,0.289,20.98,107.6542,18.87,19.86,17.59,0,110.8,13.1,19.69,220.0
"2016-04-15 00:01:30",1547934,8.53,257.9,0.832,0.207,20.99,107.652,18.87,19.87,17.57,0,110.8,13.1,19.68,219.9
"2016-04-15 00:02:00",1547935,9.27,257,0.546,0.24,20.98,107.6455,18.85,19.84,17.7,0,110.8,13.1,19.67,219.0
"2016-04-15 00:02:30",1547936,9.73,255.9,1.062,0.235,21.04,107.6354,18.82,19.86,17.8,0,110.8,13.1,19.64,217.9
"2016-04-15 00:03:00",1547937,10.03,258,2.092,0.259,21.01,107.6328,18.82,19.85,17.77,0,110.8,13.1,19.64,220.0
"2016-04-15 00:03:30",1547938,11.15,263.5,0.802,0.46,20.97,107.6326,18.82,19.85,18.02,0,110.8,13.11,19.63,225.5
"2016-04-15 00:04:00",1547939,11.68,270.6,4.632,0.974,20.74,107.6326,18.82,19.83,18.47,0,110.8,13.11,19.63,232.6
"2016-04-15 00:04:30",1547940,13.68,271.1,4.34,1.264,20.12,107.6326,18.82,19.83,19.39,0,110.8,13.11,19.63,233.1
"2016-04-15 00:05:00",1547941,16.2,277,2.143,0.858,19.56,107.6086,18.76,19.82,20.21,0,110.8,13.11,19.57,239.0
"2016-04-15 00:05:30",1547942,16.68,279.1,1.564,0.779,19.72,107.5858,18.7,19.81,20.32,0,110.8,13.11,19.51,241.1
"2016-04-15 00:06:00",1547943,17.17,279.7,1.999,0.428,19.79,107.5478,18.6,19.75,20.44,0,110.8,13.11,19.42,241.7
"2016-04-15 00:06:30",1547944,16.77,278,2.554,0.463,19.77,107.5082,18.5,19.69,20.66,0,110.8,13.11,19.31,240.0
"2016-04-15 00:07:00",1547945,16.33,279.2,1.604,0.537,19.9,107.46,18.37,19.63,20.78,0,110.8,13.11,19.19,241.2
"2016-04-15 00:07:30",1547946,16.55,274.9,2.964,0.954,19.94,107.4125,18.25,19.53,20.89,0,110.8,13.11,19.07,236.9
"2016-04-15 00:08:00",1547947,17,278.5,1.902,0.472,19.94,107.3635,18.13,19.45,21.15,0,110.8,13.12,18.94,240.5
"2016-04-15 00:08:30",1547948,16.5,280.9,2.894,0.958,19.94,107.3168,18.01,19.36,21.34,0,110.8,13.12,18.82,242.9
"2016-04-15 00:09:00",1547949,15.68,279.1,1.93,0.886,20,107.2788,17.91,19.26,21.5,0,110.8,13.12,18.72,241.1
"2016-04-15 00:09:30",1547950,17.35,274.2,4.97,0.684,19.89,107.243,17.82,19.15,21.75,0,110.8,13.12,18.63,236.2
"2016-04-15 00:10:00",1547951,17.17,277.2,5.429,1.174,19.86,107.2079,17.73,19.07,21.93,0,110.8,13.12,18.54,239.2
"2016-04-15 00:10:30",1547952,19.68,270.8,3.773,1.122,19.7,107.1761,17.65,18.99,22.13,0,110.8,13.12,18.46,232.8
"2016-04-15 00:11:00",1547953,20.99,271.6,4.493,1.64,19.83,107.1497,17.58,18.9,22.11,0,110.8,13.12,18.39,233.6
"2016-04-15 00:11:30",1547954,17.96,267.6,4.059,0.951,19.9,107.1226,17.51,18.84,22.2,0,110.8,13.12,18.32,229.6
"2016-04-15 00:12:00",1547955,18.71,265.5,4.301,1.9,19.83,107.0979,17.45,18.75,22.32,0,110.8,13.12,18.26,227.5
"2016-04-15 00:12:30",1547956,17.42,272.5,2.991,1.346,19.66,107.0787,17.4,18.69,22.61,0,110.8,13.12,18.21,234.5
"2016-04-15 00:13:00",1547957,19,274.8,1.288,0.618,19.68,107.0628,17.36,18.63,22.77,0,110.8,13.12,18.17,236.8
"2016-04-15 00:13:30",1547958,18.8,273.9,1.082,0.564,19.63,107.0394,17.3,18.57,22.9,0,110.8,13.12,18.11,235.9
"2016-04-15 00:14:00",1547959,18.2,273.2,1.98,0.637,19.73,107.0275,17.27,18.52,22.94,0,110.8,13.12,18.08,235.2
"2016-04-15 00:14:30",1547960,16.7,269.4,1.866,0.676,19.66,107.005,17.21,18.47,22.98,0,110.8,13.12,18.02,231.4
"2016-04-15 00:15:00",1547961,16.46,272.9,2.309,0.546,19.71,106.9993,17.19,18.41,23.22,0,110.8,13.12,18.01,234.9
"2016-04-15 00:15:30",1547962,15.78,279.5,2.443,0.679,19.61,106.9794,17.14,18.35,23.52,0,110.8,13.12,17.95,241.5
"2016-04-15 00:16:00",1547963,14.74,285,2.858,0.75,19.44,106.9776,17.14,18.31,23.62,0,110.8,13.12,17.95,247.0
"2016-04-15 00:16:30",1547964,13.89,282,2.251,0.386,19.58,106.9545,17.08,18.26,23.67,0,110.8,13.12,17.89,244.0
"2016-04-15 00:17:00",1547965,15.16,280.8,2.856,1.107,19.53,106.9544,17.08,18.22,23.9,0,110.8,13.12,17.89,242.8
"2016-04-15 00:17:30",1547966,15.81,277.9,2.025,0.471,19.49,106.9357,17.03,18.18,24.12,0,110.8,13.12,17.84,239.9
"2016-04-15 00:18:00",1547967,16.04,278.4,1.847,0.743,19.47,106.9257,17,18.12,24.38,0,110.8,13.11,17.82,240.4
"2016-04-15 00:18:30",1547968,14.9,275.6,1.911,0.656,19.45,106.9088,16.96,18.1,24.64,0,110.8,13.12,17.77,237.6
"2016-04-15 00:19:00",1547969,15.18,276,2.531,0.725,19.47,106.8919,16.92,18.06,24.82,0,110.8,13.12,17.73,238.0
"2016-04-15 00:19:30",1547970,15.72,277.2,2.869,0.522,19.53,106.8812,16.89,18.02,24.83,0,110.8,13.12,17.70,239.2
"2016-04-15 00:20:00",1547971,14.06,278.7,2.611,0.813,19.54,106.8581,16.83,17.97,24.86,0,110.8,13.12,17.64,240.7
"2016-04-15 00:20:30",1547972,12.13,279.8,3.708,0.977,19.39,106.8559,16.83,17.94,24.91,0,110.8,13.12,17.64,241.8
"2016-04-15 00:21:00",1547973,10.5,274.4,5.233,1.305,19.33,106.835,16.77,17.9,25.36,0,110.8,13.12,17.58,236.4
"2016-04-15 00:21:30",1547974,11.47,281.6,3.39,1.187,19.38,106.8243,16.74,17.87,25.55,0,110.8,13.13,17.56,243.6
"2016-04-15 00:22:00",1547975,10.85,287.5,5.201,0.91,19.37,106.8235,16.74,17.83,25.46,0,110.8,13.13,17.55,249.5
"2016-04-15 00:22:30",1547976,11.65,291.8,3.178,0.783,19.43,106.8069,16.7,17.8,25.12,0,110.8,13.13,17.51,253.8
"2016-04-15 00:23:00",1547977,12.62,285.6,5.14,1.038,19.5,106.7905,16.66,17.77,25.18,0,110.8,13.13,17.47,247.6
"2016-04-15 00:23:30",1547978,13.12,283.2,3.281,1.527,19.57,106.7905,16.66,17.74,24.98,0,110.8,13.13,17.47,245.2
"2016-04-15 00:24:00",1547979,13.93,274,5.047,1.255,19.89,106.7905,16.66,17.7,24.75,0,110.7,13.13,17.47,236.0
"2016-04-15 00:24:30",1547980,14.9,263.9,5.396,1.354,20.17,106.7905,16.66,17.69,24.31,0,110.8,13.13,17.47,225.9
"2016-04-15 00:25:00",1547981,11.22,248.3,8.76,1.435,20.05,106.7905,16.66,17.68,24.36,0,110.7,13.13,17.47,210.3
"2016-04-15 00:25:30",1547982,8.98,250.1,15.84,0.904,19.99,106.7905,16.66,17.68,24.32,0,110.7,13.13,17.47,212.1
"2016-04-15 00:26:00",1547983,10.14,287.5,12.42,1.046,19.3,106.7917,16.66,17.68,24.62,0,110.7,13.13,17.47,249.5
"2016-04-15 00:26:30",1547984,10.59,298.5,2.652,0.394,19.12,106.7939,16.67,17.67,24.94,0,110.7,13.13,17.48,260.5
"2016-04-15 00:27:00",1547985,10.53,297.1,3.785,0.492,19.04,106.7925,16.66,17.67,25.08,0,110.7,13.13,17.47,259.1
"2016-04-15 00:27:30",1547986,10.27,299.2,3.298,0.818,19.21,106.7905,16.66,17.68,25.23,0,110.7,13.13,17.47,261.2
"2016-04-15 00:28:00",1547987,9.63,303.3,6.273,1.017,19.08,106.7905,16.66,17.67,25.08,0,110.7,13.13,17.47,265.3
"2016-04-15 00:28:30",1547988,10.99,310,1.568,0.319,18.94,106.788,16.65,17.67,25.44,0,110.7,13.13,17.46,272.0
"2016-04-15 00:29:00",1547989,11.63,307.3,2.328,0.843,18.87,106.7655,16.59,17.65,25.36,0,110.7,13.13,17.40,269.3
"2016-04-15 00:29:30",1547990,12.03,309.9,1.158,0.633,18.81,106.7571,16.57,17.65,25.62,0,110.7,13.13,17.38,271.9
"2016-04-15 00:30:00",1547991,9.92,309.4,4.957,0.381,18.94,106.7433,16.54,17.62,25.56,0,110.7,13.13,17.35,271.4
"2016-04-15 00:30:30",1547992,9.12,308.5,4.493,0.843,19.16,106.7251,16.49,17.6,25.48,0,110.7,13.13,17.30,270.5
"2016-04-15 00:31:00",1547993,8.65,297.3,6.982,0.591,19.48,106.7169,16.47,17.55,25.02,0,110.7,13.13,17.28,259.3
"2016-04-15 00:31:30",1547994,9.81,310,3.141,0.483,18.93,106.6939,16.41,17.54,25.33,0,110.7,13.13,17.22,272.0
"2016-04-15 00:32:00",1547995,9.75,308.1,1.602,0.153,18.94,106.6952,16.41,17.5,25.56,0,110.7,13.13,17.22,270.1
"2016-04-15 00:32:30",1547996,10.04,307.4,1.934,0.229,18.87,106.6773,16.37,17.48,25.64,0,110.7,13.13,17.18,269.4
"2016-04-15 00:33:00",1547997,10.65,303.6,1.147,0.346,18.86,106.6641,16.33,17.46,25.65,0,110.7,13.13,17.14,265.6
"2016-04-15 00:33:30",1547998,10.47,305,2.905,0.201,18.86,106.6592,16.32,17.43,25.88,0,110.7,13.12,17.13,267.0
"2016-04-15 00:34:00",1547999,10.01,307.9,1.379,0.168,18.99,106.6336,16.26,17.39,25.7,0,110.7,13.13,17.06,269.9
"2016-04-15 00:34:30",1548000,10.35,306.7,1.079,0.512,19.05,106.6337,16.26,17.37,25.66,0,110.7,13.13,17.07,268.7
"2016-04-15 00:35:00",1548001,10.25,306.2,2.292,0.307,19,106.6248,16.23,17.34,25.8,0,110.7,13.13,17.04,268.2
"2016-04-15 00:35:30",1548002,9.1,304.5,2.405,0.368,19.27,106.6124,16.2,17.31,25.6,0,110.7,13.13,17.01,266.5
"2016-04-15 00:36:00",1548003,9.47,302.1,1.275,0.222,19.12,106.6156,16.21,17.29,25.67,0,110.7,13.13,17.02,264.1
"2016-04-15 00:36:30",1548004,9.85,302.2,1.68,0.213,18.98,106.6028,16.18,17.26,25.84,0,110.7,13.13,16.99,264.2
"2016-04-15 00:37:00",1548005,9.91,305.2,1.589,0.272,18.81,106.5889,16.14,17.23,26.07,0,110.7,13.13,16.95,267.2
"2016-04-15 00:37:30",1548006,10.28,304.1,1.49,0.265,18.69,106.5886,16.14,17.2,26.27,0,110.7,13.13,16.95,266.1
"2016-04-15 00:38:00",1548007,10.14,303.4,1.233,0.269,18.97,106.5805,16.12,17.17,26.14,0,110.7,13.13,16.93,265.4
"2016-04-15 00:38:30",1548008,9.81,302.6,0.948,0.271,19.08,106.5613,16.07,17.16,25.94,0,110.7,13.13,16.88,264.6
"2016-04-15 00:39:00",1548009,9.34,301.7,1.221,0.153,19.17,106.5563,16.06,17.15,25.78,0,110.7,13.14,16.87,263.7
"2016-04-15 00:39:30",1548010,9.51,305.3,1.794,0.26,19.1,106.5563,16.06,17.12,25.87,0,110.7,13.14,16.87,267.3
"2016-04-15 00:40:00",1548011,10.12,306.5,2.273,0.145,18.95,106.5515,16.05,17.1,26.06,0,110.7,13.14,16.85,268.5
"2016-04-15 00:40:30",1548012,10.18,305.1,2.148,0.163,18.94,106.5329,16,17.08,26.29,0,110.7,13.14,16.81,267.1
"2016-04-15 00:41:00",1548013,10.59,305.8,0.787,0.26,19.01,106.5225,15.97,17.06,26.18,0,110.7,13.14,16.78,267.8
"2016-04-15 00:41:30",1548014,10.51,304,1.615,0.123,18.96,106.5225,15.97,17.04,26.15,0,110.7,13.14,16.78,266.0
"2016-04-15 00:42:00",1548015,10.9,304.7,1.598,0.186,18.94,106.5225,15.97,17.03,26.2,0,110.7,13.14,16.78,266.7
"2016-04-15 00:42:30",1548016,10.85,305.9,1.008,0.183,18.97,106.5225,15.97,17.02,26.28,0,110.7,13.14,16.78,267.9
"2016-04-15 00:43:00",1548017,10.29,303.3,1.475,0.253,19.05,106.516,15.95,17.01,26.16,0,110.7,13.14,16.76,265.3
"2016-04-15 00:43:30",1548018,10.32,304.2,2.315,0.296,19.08,106.5075,15.93,16.98,26.11,0,110.7,13.14,16.74,266.2
"2016-04-15 00:44:00",1548019,11,305.1,1.554,0.386,19.06,106.494,15.9,16.97,26.1,0,110.7,13.14,16.71,267.1
"2016-04-15 00:44:30",1548020,11.05,304.6,1.266,0.253,18.96,106.4895,15.89,16.96,26.15,0,110.7,13.14,16.69,266.6
"2016-04-15 00:45:00",1548021,11.19,305,1.573,0.293,19.02,106.4887,15.88,16.96,26.15,0,110.7,13.14,16.69,267.0
"2016-04-15 00:45:30",1548022,11.11,303.9,1.2,0.294,18.98,106.4887,15.88,16.96,26.27,0,110.7,13.14,16.69,265.9
"2016-04-15 00:46:00",1548023,11.27,304.3,1.241,0.219,18.91,106.4887,15.88,16.94,26.44,0,110.7,13.14,16.69,266.3
"2016-04-15 00:46:30",1548024,11.05,305.2,1.058,0.113,18.83,106.4887,15.88,16.96,26.6,0,110.7,13.14,16.69,267.2
"2016-04-15 00:47:00",1548025,10.7,303.9,1.884,0.215,19,106.4887,15.88,16.93,26.51,0,110.7,13.14,16.69,265.9
"2016-04-15 00:47:30",1548026,10.22,303.2,3.192,0.534,19.12,106.4887,15.88,16.95,26.4,0,110.7,13.15,16.69,265.2
"2016-04-15 00:48:00",1548027,10.63,302.2,1.901,0.394,19.03,106.4887,15.88,16.92,26.44,0,110.7,13.15,16.69,264.2
"2016-04-15 00:48:30",1548028,10.41,303.4,2.344,0.363,19.05,106.4887,15.88,16.91,26.49,0,110.7,13.15,16.69,265.4
"2016-04-15 00:49:00",1548029,10.23,303.7,0.598,0.187,19.19,106.4887,15.88,16.92,26.44,0,110.7,13.14,16.69,265.7
"2016-04-15 00:49:30",1548030,10.26,302.9,1.43,0.203,19.23,106.4887,15.88,16.92,26.43,0,110.7,13.14,16.69,264.9
"2016-04-15 00:50:00",1548031,10.06,304.2,1.258,0.205,19.17,106.4887,15.88,16.93,26.41,0,110.7,13.14,16.69,266.2
"2016-04-15 00:50:30",1548032,9.24,302,2.038,0.309,19.19,106.4896,15.89,16.91,26.36,0,110.7,13.14,16.69,264.0
"2016-04-15 00:51:00",1548033,9.38,304.8,1.557,0.27,19.17,106.4908,15.89,16.92,26.28,0,110.7,13.14,16.70,266.8
"2016-04-15 00:51:30",1548034,8.99,306.6,1.684,0.206,19.09,106.4926,15.89,16.91,26.26,0,110.6,13.14,16.70,268.6
"2016-04-15 00:52:00",1548035,9.91,308.7,1.289,0.278,19.17,106.4938,15.9,16.92,26.26,0,110.7,13.14,16.71,270.7
"2016-04-15 00:52:30",1548036,9.73,306,2.807,0.495,19.14,106.4962,15.9,16.92,26.28,0,110.6,13.14,16.71,268.0
"2016-04-15 00:53:00",1548037,9.6,305.9,1.854,0.397,19.18,106.4968,15.91,16.94,26.2,0,110.6,13.14,16.71,267.9
"2016-04-15 00:53:30",1548038,10.03,306.5,1.349,0.245,19.18,106.4994,15.91,16.94,26.08,0,110.6,13.14,16.72,268.5
"2016-04-15 00:54:00",1548039,10.19,306.7,1.612,0.278,19.26,106.5039,15.92,16.95,26,0,110.6,13.14,16.73,268.7
"2016-04-15 00:54:30",1548040,9.68,306.4,2.886,0.29,19.28,106.516,15.95,16.94,25.94,0,110.6,13.14,16.76,268.4
"2016-04-15 00:55:00",1548041,9.61,303.9,1.67,0.447,19.34,106.525,15.98,16.95,25.89,0,110.6,13.15,16.79,265.9
"2016-04-15 00:55:30",1548042,8.96,310.1,2.408,0.226,19.35,106.5308,15.99,16.96,25.84,0,110.6,13.15,16.80,272.1
"2016-04-15 00:56:00",1548043,9.21,304.4,1.917,0.479,19.23,106.5405,16.02,16.96,25.89,0,110.6,13.15,16.83,266.4
"2016-04-15 00:56:30",1548044,9.82,309.4,2.083,0.283,19.23,106.5489,16.04,16.97,25.87,0,110.6,13.15,16.85,271.4
"2016-04-15 00:57:00",1548045,9.55,311.1,1.523,0.292,19.29,106.5519,16.05,16.98,25.84,0,110.6,13.15,16.85,273.1
"2016-04-15 00:57:30",1548046,8.99,307.4,1.533,0.307,19.2,106.554,16.05,16.98,25.91,0,110.6,13.15,16.86,269.4
"2016-04-15 00:58:00",1548047,9.36,310.3,1.729,0.288,19.21,106.5543,16.05,16.99,25.83,0,110.6,13.15,16.86,272.3
"2016-04-15 00:58:30",1548048,9.06,310.9,1.158,0.159,19.21,106.5567,16.06,17,25.79,0,110.6,13.15,16.87,272.9
"2016-04-15 00:59:00",1548049,9.7,306.1,1.574,0.159,19.15,106.5567,16.06,16.99,25.83,0,110.6,13.15,16.87,268.1
"2016-04-15 00:59:30",1548050,9.67,307,0.684,0.125,19.27,106.5579,16.06,17.01,25.87,0,110.6,13.15,16.87,269.0
"2016-04-15 01:00:00",1548051,9.26,302.4,3.309,0.602,19.32,106.5582,16.06,17.02,25.82,0,110.6,13.15,16.87,264.4
"2016-04-15 01:00:30",1548052,8.06,300.7,2.361,0.299,19.31,106.5585,16.06,17.02,25.8,0,110.6,13.15,16.87,262.7
"2016-04-15 01:01:00",1548053,8.27,302.3,2.868,0.388,19.31,106.5585,16.06,17.02,25.81,0,110.6,13.15,16.87,264.3
"2016-04-15 01:01:30",1548054,9.31,304.5,0.776,0.197,19.26,106.5585,16.06,17.02,25.78,0,110.6,13.15,16.87,266.5
"2016-04-15 01:02:00",1548055,9.64,307.2,1.312,0.378,19.23,106.5585,16.06,17.04,25.76,0,110.6,13.15,16.87,269.2
"2016-04-15 01:02:30",1548056,9.62,308.6,1.507,0.169,19.13,106.5585,16.06,17.03,25.83,0,110.6,13.15,16.87,270.6
"2016-04-15 01:03:00",1548057,10.01,309.6,0.88,0.28,19.27,106.5585,16.06,17.02,25.8,0,110.6,13.15,16.87,271.6
"2016-04-15 01:03:30",1548058,9.79,310.1,1.09,0.397,19.2,106.5585,16.06,17.06,25.7,0,110.6,13.15,16.87,272.1
"2016-04-15 01:04:00",1548059,9.68,309.7,1.434,0.167,19.19,106.5585,16.06,17.05,25.72,0,110.6,13.15,16.87,271.7
"2016-04-15 01:04:30",1548060,9.53,306.9,0.658,0.194,19.23,106.5585,16.06,17.05,25.81,0,110.6,13.15,16.87,268.9
"2016-04-15 01:05:00",1548061,9.6,307.3,0.885,0.102,19.21,106.5585,16.06,17.04,25.98,0,110.6,13.15,16.87,269.3
"2016-04-15 01:05:30",1548062,9.48,308,0.787,0.189,19.15,106.5585,16.06,17.05,25.99,0,110.6,13.15,16.87,270.0
"2016-04-15 01:06:00",1548063,9.47,309.7,1.34,0.114,19.18,106.5585,16.06,17.06,25.91,0,110.6,13.15,16.87,271.7
"2016-04-15 01:06:30",1548064,9.62,310.9,1.383,0.251,19.24,106.5585,16.06,17.05,25.87,0,110.6,13.15,16.87,272.9
"2016-04-15 01:07:00",1548065,9.56,310.5,1.141,0.198,19.23,106.5585,16.06,17.06,25.84,0,110.6,13.15,16.87,272.5
"2016-04-15 01:07:30",1548066,9.52,311.7,0.968,0.166,19.22,106.5585,16.06,17.06,25.85,0,110.6,13.14,16.87,273.7
"2016-04-15 01:08:00",1548067,9.69,312.9,1.19,0.144,19.19,106.5585,16.06,17.06,25.81,0,110.6,13.15,16.87,274.9
"2016-04-15 01:08:30",1548068,9.93,310.7,1.282,0.179,19.2,106.5585,16.06,17.05,25.84,0,110.6,13.15,16.87,272.7
"2016-04-15 01:09:00",1548069,9.77,309.8,1.237,0.196,19.16,106.5585,16.06,17.05,25.91,0,110.6,13.14,16.87,271.8
"2016-04-15 01:09:30",1548070,9.27,309.4,1.356,0.19,19.3,106.5585,16.06,17.05,25.99,0,110.6,13.15,16.87,271.4
"2016-04-15 01:10:00",1548071,9.23,309.2,2.159,0.181,19.21,106.5585,16.06,17.04,25.98,0,110.6,13.15,16.87,271.2
"2016-04-15 01:10:30",1548072,9.34,309,1.147,0.3,19.2,106.5571,16.06,17.04,26.09,0,110.6,13.15,16.87,271.0
"2016-04-15 01:11:00",1548073,9.12,310.8,1.583,0.127,19.21,106.5537,16.05,17.06,26.12,0,110.6,13.15,16.86,272.8
"2016-04-15 01:11:30",1548074,9.22,309.6,0.636,0.11,19.18,106.5509,16.04,17.05,26.12,0,110.6,13.15,16.85,271.6
"2016-04-15 01:12:00",1548075,9.1,308,1.208,0.213,19.2,106.5481,16.04,17.04,26.19,0,110.6,13.15,16.85,270.0
"2016-04-15 01:12:30",1548076,8.91,307.1,1.536,0.148,19.11,106.5444,16.03,17.04,26.24,0,110.6,13.15,16.84,269.1
"2016-04-15 01:13:00",1548077,8.47,306.3,1.244,0.134,19.15,106.5376,16.01,17.04,26.28,0,110.6,13.15,16.82,268.3
"2016-04-15 01:13:30",1548078,8.65,306.7,1.46,0.231,19.17,106.5269,15.98,17.04,26.3,0,110.6,13.15,16.79,268.7
"2016-04-15 01:14:00",1548079,8.14,306.8,1.319,0.198,19.08,106.5247,15.98,17.02,26.27,0,110.6,13.16,16.78,268.8
"2016-04-15 01:14:30",1548080,8.4,305,1.457,0.223,19.21,106.5247,15.98,17.04,26.32,0,110.6,13.16,16.78,267.0
"2016-04-15 01:15:00",1548081,8.33,305.5,1.98,0.237,19.25,106.5247,15.98,17.02,26.34,0,110.6,13.16,16.78,267.5
"2016-04-15 01:15:30",1548082,7.901,304.4,1.707,0.209,19.28,106.5247,15.98,17.01,26.31,0,110.6,13.16,16.78,266.4
"2016-04-15 01:16:00",1548083,7.486,304.1,1.171,0.211,19.34,106.5247,15.98,17.02,26.23,0,110.6,13.16,16.78,266.1
"2016-04-15 01:16:30",1548084,7.479,306.5,1.043,0.195,19.31,106.5247,15.98,17.02,26.2,0,110.6,13.16,16.78,268.5
"2016-04-15 01:17:00",1548085,7.244,306.9,0.806,0.16,19.34,106.5247,15.98,17,26.22,0,110.6,13.16,16.78,268.9
"2016-04-15 01:17:30",1548086,7.109,305.5,0.914,0.105,19.39,106.525,15.98,17.01,26.19,0,110.6,13.16,16.79,267.5
"2016-04-15 01:18:00",1548087,7.354,307,1.096,0.182,19.26,106.5247,15.98,17,26.16,0,110.6,13.16,16.78,269.0
"2016-04-15 01:18:30",1548088,7.453,306.7,2.449,0.147,19.23,106.5247,15.98,17.01,26.28,0,110.6,13.16,16.78,268.7
"2016-04-15 01:19:00",1548089,7.175,306.3,1.371,0.283,19.21,106.525,15.98,17.01,26.27,0,110.6,13.16,16.79,268.3
"2016-04-15 01:19:30",1548090,6.888,303.5,0.979,0.136,19.33,106.5253,15.98,17.01,26.21,0,110.6,13.16,16.79,265.5
"2016-04-15 01:20:00",1548091,6.734,301.2,0.854,0.075,19.45,106.5256,15.98,17,26.07,0,110.6,13.16,16.79,263.2
"2016-04-15 01:20:30",1548092,7.286,303.6,1.039,0.252,19.27,106.5253,15.98,17.02,26.12,0,110.6,13.16,16.79,265.6
"2016-04-15 01:21:00",1548093,7.297,304.4,1.194,0.14,19.23,106.525,15.98,17,26.24,0,110.6,13.16,16.79,266.4
"2016-04-15 01:21:30",1548094,7.551,304.3,1.201,0.142,19.21,106.5262,15.98,17.02,26.24,0,110.6,13.16,16.79,266.3
"2016-04-15 01:22:00",1548095,7.434,302.6,1.41,0.15,19.23,106.5268,15.98,17.02,26.22,0,110.6,13.16,16.79,264.6
"2016-04-15 01:22:30",1548096,7.321,300.9,1.081,0.111,19.25,106.5265,15.98,17.02,26.16,0,110.6,13.16,16.79,262.9
"2016-04-15 01:23:00",1548097,7.597,301.8,1.41,0.146,19.23,106.5286,15.99,17.03,26.16,0,110.6,13.16,16.79,263.8
"2016-04-15 01:23:30",1548098,7.437,303.1,1.298,0.216,19.24,106.528,15.99,17.03,26.12,0,110.6,13.16,16.79,265.1
"2016-04-15 01:24:00",1548099,7.431,303.8,1.909,0.19,19.22,106.5295,15.99,17.03,26.14,0,110.6,13.16,16.80,265.8
"2016-04-15 01:24:30",1548100,7.556,308.2,0.974,0.139,19.26,106.5301,15.99,17.03,26.17,0,110.6,13.16,16.80,270.2
"2016-04-15 01:25:00",1548101,7.426,306.5,2.12,0.251,19.26,106.5319,16,17.03,26.17,0,110.6,13.16,16.80,268.5
"2016-04-15 01:25:30",1548102,7.31,307.2,1.097,0.123,19.28,106.5331,16,17.03,26.18,0,110.6,13.16,16.81,269.2
"2016-04-15 01:26:00",1548103,7.157,306.8,1.106,0.138,19.15,106.5325,16,17.04,26.22,0,110.6,13.16,16.80,268.8
"2016-04-15 01:26:30",1548104,7.039,304.4,1.377,0.156,19.19,106.5325,16,17.04,26.25,0,110.6,13.16,16.80,266.4
"2016-04-15 01:27:00",1548105,6.822,301.1,1.952,0.122,19.21,106.5343,16,17.03,26.23,0,110.6,13.16,16.81,263.1
"2016-04-15 01:27:30",1548106,6.757,302.5,1.62,0.077,19.18,106.5343,16,17.04,26.26,0,110.6,13.16,16.81,264.5
"2016-04-15 01:28:00",1548107,7.069,304.4,0.822,0.11,19.14,106.534,16,17.04,26.32,0,110.6,13.16,16.81,266.4
"2016-04-15 01:28:30",1548108,7.098,303.8,1.444,0.126,19.19,106.5349,16,17.06,26.35,0,110.6,13.16,16.81,265.8
"2016-04-15 01:29:00",1548109,7.046,300.6,1.642,0.146,19.14,106.537,16.01,17.05,26.38,0,110.6,13.16,16.82,262.6
"2016-04-15 01:29:30",1548110,7.085,300.6,0.96,0.115,19.22,106.5367,16.01,17.04,26.41,0,110.6,13.16,16.82,262.6
"2016-04-15 01:30:00",1548111,6.94,300.8,1.841,0.114,19.15,106.5367,16.01,17.04,26.44,0,110.6,13.16,16.82,262.8
"2016-04-15 01:30:30",1548112,6.793,301.6,1.119,0.081,19.07,106.5394,16.01,17.05,26.46,0,110.6,13.17,16.82,263.6
"2016-04-15 01:31:00",1548113,6.879,302.5,1.375,0.11,19.19,106.54,16.02,17.04,26.41,0,110.6,13.17,16.82,264.5
"2016-04-15 01:31:30",1548114,6.629,302.3,0.923,0.102,19.17,106.5418,16.02,17.04,26.39,0,110.6,13.17,16.83,264.3
"2016-04-15 01:32:00",1548115,6.86,302.5,1.107,0.111,19.14,106.5403,16.02,17.04,26.36,0,110.6,13.17,16.82,264.5
"2016-04-15 01:32:30",1548116,6.745,301.8,0.97,0.121,19.13,106.5433,16.02,17.03,26.32,0,110.6,13.17,16.83,263.8
"2016-04-15 01:33:00",1548117,6.612,301.8,1.952,0.173,19.19,106.5433,16.02,17.03,26.33,0,110.6,13.17,16.83,263.8
"2016-04-15 01:33:30",1548118,6.589,298,2.486,0.136,19.24,106.5445,16.03,17.03,26.28,0,110.6,13.17,16.84,260.0
"2016-04-15 01:34:00",1548119,6.55,295.4,1.153,0.166,19.36,106.5458,16.03,17.02,26.29,0,110.6,13.17,16.84,257.4
"2016-04-15 01:34:30",1548120,6.501,297,1.246,0.072,19.24,106.5452,16.03,17.02,26.28,0,110.6,13.17,16.84,259.0
"2016-04-15 01:35:00",1548121,6.601,298.2,0.899,0.057,19.29,106.5448,16.03,17.03,26.3,0,110.6,13.17,16.84,260.2
"2016-04-15 01:35:30",1548122,6.333,296.2,1.404,0.15,19.17,106.5461,16.03,17.01,26.28,0,110.6,13.17,16.84,258.2
"2016-04-15 01:36:00",1548123,6.068,297,1.1,0.103,19.19,106.5456,16.03,17,26.32,0,110.6,13.17,16.84,259.0
"2016-04-15 01:36:30",1548124,6.299,298,1.109,0.126,19.16,106.543,16.02,17.01,26.32,0,110.6,13.17,16.83,260.0
"2016-04-15 01:37:00",1548125,6.368,299.3,1.562,0.118,19.18,106.544,16.03,17.01,26.29,0,110.6,13.17,16.83,261.3
"2016-04-15 01:37:30",1548126,6.021,298.2,1.109,0.215,19.17,106.544,16.03,17,26.32,0,110.6,13.16,16.83,260.2
"2016-04-15 01:38:00",1548127,6.295,297.5,1.633,0.11,19.14,106.5409,16.02,17.01,26.34,0,110.6,13.17,16.83,259.5
"2016-04-15 01:38:30",1548128,6.022,297.9,1.419,0.142,19.1,106.537,16.01,17,26.38,0,110.6,13.17,16.82,259.9
"2016-04-15 01:39:00",1548129,6.146,295.4,1.501,0.122,19.15,106.5329,16,17,26.36,0,110.6,13.16,16.81,257.4
"2016-04-15 01:39:30",1548130,6.13,295.3,0.831,0.074,19.23,106.5281,15.99,17,26.34,0,110.6,13.17,16.79,257.3
"2016-04-15 01:40:00",1548131,6.437,297.2,1.489,0.308,19.25,106.5251,15.98,17,26.34,0,110.6,13.16,16.79,259.2
"2016-04-15 01:40:30",1548132,6.59,297.2,2.45,0.193,19.29,106.5257,15.98,17.01,26.28,0,110.6,13.16,16.79,259.2
"2016-04-15 01:41:00",1548133,6.212,297,1.8,0.315,19.22,106.5266,15.98,17.01,26.31,0,110.6,13.16,16.79,259.0
"2016-04-15 01:41:30",1548134,6.769,297.7,1.521,0.137,19.3,106.5266,15.98,16.99,26.29,0,110.6,13.16,16.79,259.7
"2016-04-15 01:42:00",1548135,6.807,295.2,1.057,0.101,19.23,106.526,15.98,17,26.24,0,110.6,13.16,16.79,257.2
"2016-04-15 01:42:30",1548136,6.665,292.9,1.285,0.173,19.27,106.5257,15.98,17,26.26,0,110.6,13.16,16.79,254.9
"2016-04-15 01:43:00",1548137,6.368,292.9,3.178,0.163,19.3,106.526,15.98,16.99,26.24,0,110.6,13.16,16.79,254.9
"2016-04-15 01:43:30",1548138,6.399,292.6,2.661,0.264,19.22,106.5266,15.98,16.99,26.31,0,110.6,13.16,16.79,254.6
"2016-04-15 01:44:00",1548139,6.151,295.2,2.03,0.177,19.15,106.5269,15.98,17,26.37,0,110.6,13.16,16.79,257.2
"2016-04-15 01:44:30",1548140,6.684,292.7,1.742,0.476,19.36,106.5266,15.98,16.99,26.29,0,110.6,13.16,16.79,254.7
"2016-04-15 01:45:00",1548141,6.732,294,1.412,0.331,19.28,106.5269,15.98,17,26.24,0,110.6,13.16,16.79,256.0
"2016-04-15 01:45:30",1548142,6.938,294.2,1.716,0.224,19.2,106.5269,15.98,17.01,26.35,0,110.6,13.16,16.79,256.2
"2016-04-15 01:46:00",1548143,7.232,294,1.442,0.196,19.31,106.5269,15.98,17,26.3,0,110.6,13.17,16.79,256.0
"2016-04-15 01:46:30",1548144,7.364,293.9,1.725,0.16,19.27,106.5269,15.98,16.98,26.26,0,110.6,13.17,16.79,255.9
"2016-04-15 01:47:00",1548145,7.033,297.4,2.916,0.41,19.26,106.5269,15.98,17,26.29,0,110.6,13.17,16.79,259.4